Content
SEND FEEDBACK

Daily
Averages
Monthly
Summary
Canada

MONTREAL, QUEBEC


Home > North America > Canada > Quebec
Elevation: 118 feet     Latitude: 45 28N     Longitude: 073 45W

WEATHER
 
SELECT A DAY
Number of Records: 198,114;   Date Range: 1/1/95 - 7/27/14
 
SHARE

PRINT THIS DATA

[ ← Previous Day ]
WEATHER ALMANAC - MARCH 23, 2013
[ Next Day → ]
[ °C ]   °F
Weather ElementAverageHighLow
Temperature31.6 °F38 °F (2:00 pm)24.8 °F (4:00 am)
Dewpoint21.1 °F23 °F (5:00 pm)19 °F (8:00 am)
Humidity64.8 %86 % (4:00 am)37 % (2:00 pm)
Barometer29.72 in29.82 in (10:00 pm)29.67 in (1:00 pm)
Wind Speed15.9 mph23 mph (11:00 am)
Wind Gust31.1 mph (1:00 pm)
Weather ElementAverage
Visibility16.7 mi
Wind DirectionW (272.6 °)

Weather ElementTotal
Precipitation---
Heating Degree Days33.6 (Base 65)
Averaged from 27 records on March 23, 2013
WEATHER CONDITIONS BREAKOUT
WIND DIRECTION BREAKOUT
WEATHER BY HOUR - MARCH 23, 2013
[ °C ]   °F
Local TimeTemperatureDewpointHumidityBarometerVisibilityWind DirectionWind SpeedGust SpeedPrecipitationEventsConditions
1:00 AM26.6 °F21.2 °F80 %29.73 in15.0 miWest (260°)11.5 mph18.4 mphMostly Cloudy
2:00 AM27.0 °F21.0 °F71 %29.72 in15.0 miWest (280°)10.4 mphPartly Cloudy
2:00 AM26.6 °F21.2 °F80 %29.72 in15.0 miWest (270°)10.4 mphMostly Cloudy
3:00 AM26.6 °F19.4 °F74 %29.70 in15.0 miWest (260°)12.7 mphPartly Cloudy
4:00 AM24.8 °F21.2 °F86 %29.70 in15.0 miWest (280°)12.7 mph19.6 mphPartly Cloudy
5:00 AM24.8 °F19.4 °F80 %29.70 in15.0 miWest (280°)12.7 mph19.6 mphClear
6:00 AM24.8 °F19.4 °F80 %29.70 in15.0 miWest (270°)13.8 mphPartly Cloudy
7:00 AM24.8 °F19.4 °F80 %29.70 in15.0 miWest (260°)13.8 mphMostly Cloudy
8:00 AM25.0 °F19.0 °F71 %29.70 in15.0 miWest (260°)16.1 mphScattered Clouds
8:00 AM24.8 °F19.4 °F80 %29.70 in15.0 miWest (260°)17.3 mphMostly Cloudy
9:00 AM26.6 °F19.4 °F74 %29.69 in15.0 miWest (270°)16.1 mph23.0 mphMostly Cloudy
10:00 AM30.2 °F21.2 °F69 %29.69 in30.0 miWest (260°)21.9 mph28.8 mphMostly Cloudy
11:00 AM32.0 °F21.2 °F64 %29.68 in30.0 miWest (260°)23.0 mphMostly Cloudy
12:00 PM33.8 °F21.2 °F60 %29.68 in30.0 miWest (260°)19.6 mphOvercast
1:00 PM37.4 °F19.4 °F48 %29.67 in15.0 miWNW (300°)20.7 mph31.1 mphMostly Cloudy
2:00 PM38.0 °F21.0 °F37 %29.68 in15.0 miWNW (290°)18.4 mphMostly Cloudy
2:00 PM37.4 °F21.2 °F52 %29.68 in15.0 miWest (280°)18.4 mph28.8 mphMostly Cloudy
3:00 PM37.4 °F21.2 °F52 %29.69 in15.0 miWest (280°)20.7 mph28.8 mphOvercast
4:00 PM37.4 °F21.2 °F52 %29.71 in15.0 miWest (280°)18.4 mph25.3 mphOvercast
5:00 PM37.4 °F23.0 °F56 %29.73 in15.0 miWest (280°)15.0 mph25.3 mphOvercast
6:00 PM37.4 °F21.2 °F52 %29.76 in15.0 miWNW (290°)17.3 mph24.2 mphSnowLight Snow Showers
7:00 PM35.6 °F23.0 °F60 %29.78 in15.0 miWest (280°)13.8 mph19.6 mphSnowLight Snow Showers
8:00 PM36.0 °F23.0 °F46 %29.79 in15.0 miWest (270°)16.1 mphSnowLight Snow Showers
8:00 PM35.6 °F23.0 °F60 %29.79 in15.0 miWest (270°)15.0 mphOvercast
9:00 PM35.6 °F23.0 °F60 %29.81 in15.0 miWest (270°)16.1 mphMostly Cloudy
10:00 PM35.6 °F23.0 °F60 %29.82 in15.0 miWest (270°)15.0 mph20.7 mphOvercast
11:00 PM33.8 °F23.0 °F65 %29.81 in15.0 miWest (270°)12.7 mphOvercast
Hourly data recorded from CYUL, located miles away from Montreal, Quebec







STORIES FROM OUR PARTNERS